Location: B�rgermoos
(47.6500°N, 9.0667°E)
Time: 08:42:24
(UTC+00:00)

ATLAS 3B R/B - Pass Details

Date: 18 September 2020
Orbit: 1016 x 1179 km, 63.8° (Epoch: 04 October)

Event Time Altitude Azimuth Distance (km) Brightness Sun altitude
Rises 19:31:07 0° 318° (NW) 3,807 6.8 -20.6°
Reaches altitude 10° 19:33:58 10° 327° (NNW) 2,871 5.8 -21.0°
Maximum altitude 19:40:11 36° 33° (NNE) 1,632 3.6 -21.9°
Enters shadow 19:42:49 28° 73° (ENE) 1,933 3.7 -22.3°
